User: anonymous
Location: Unspecified
(0.0000°N, 0.0000°E)
Time: 16:28:11
(UTC+02:00)
Language:

Cosmos 1092 Rocket - Orbit

View from above orbital plane
View from above orbital plane
View from above satellite
View from above satellite

Ground track
Ground track

The orbit data is extracted from the following two-line orbital elements,

1 11327U 79030B   14275.10755230  .00000083  00000-0  68450-4 0  8543
2 11327 082.9482 310.2573 0028824 070.4474 341.5038 13.76943130783021
Epoch (UTC): 02 October 2014 02:34:52
Eccentricity: 0.0028824
inclination: 82.9482°
perigee height: 953 km
apogee height: 996 km
right ascension of ascending node: 310.2573°
argument of perigee: 70.4474°
revolutions per day: 13.76943130
mean anomaly at epoch: 341.5038°
orbit number at epoch: 78302

The dashed part of the orbit path shows where the satellite is in the earth's shadow,  

DLR